Year,Month,Day,Hour,Minute,Value (Times are PST for temperature in C)
2014,05,27,00,00,8.20
2014,05,27,00,01,8.20
2014,05,27,00,02,8.20
2014,05,27,00,03,8.10
2014,05,27,00,04,8.10
2014,05,27,00,05,8.10
2014,05,27,00,06,8.10
2014,05,27,00,07,8.10
2014,05,27,00,08,8.10
2014,05,27,00,09,8.00
2014,05,27,00,10,8.00
2014,05,27,00,11,8.00
2014,05,27,00,12,8.00
2014,05,27,00,13,8.10
2014,05,27,00,14,8.10
2014,05,27,00,15,8.10
2014,05,27,00,16,8.10
2014,05,27,00,17,8.10
2014,05,27,00,18,8.00
2014,05,27,00,19,8.00
2014,05,27,00,20,8.00
2014,05,27,00,21,7.90
2014,05,27,00,22,7.90
2014,05,27,00,23,7.90
2014,05,27,00,24,7.90
2014,05,27,00,25,7.90
2014,05,27,00,26,7.90
2014,05,27,00,27,7.80
2014,05,27,00,28,7.80
2014,05,27,00,29,7.80
2014,05,27,00,30,7.80
2014,05,27,00,31,7.80
2014,05,27,00,32,7.80
2014,05,27,00,33,7.80
2014,05,27,00,34,7.80
2014,05,27,00,35,7.80
2014,05,27,00,36,7.80
2014,05,27,00,37,7.70
2014,05,27,00,38,7.70
2014,05,27,00,39,7.70
2014,05,27,00,40,7.70
2014,05,27,00,41,7.70
2014,05,27,00,42,7.70
2014,05,27,00,43,7.60
2014,05,27,00,44,7.60
2014,05,27,00,45,7.60
2014,05,27,00,46,7.60
2014,05,27,00,47,7.50
2014,05,27,00,48,7.50
2014,05,27,00,49,7.50
2014,05,27,00,50,7.50
2014,05,27,00,51,7.50
2014,05,27,00,52,7.50
2014,05,27,00,53,7.50
2014,05,27,00,54,7.50
2014,05,27,00,55,7.60
2014,05,27,00,56,7.60
2014,05,27,00,57,7.60
2014,05,27,00,58,7.60
2014,05,27,00,59,7.60
2014,05,27,01,00,7.60
2014,05,27,01,01,7.60
2014,05,27,01,02,7.60
2014,05,27,01,03,7.60
2014,05,27,01,04,7.60
2014,05,27,01,05,7.60
2014,05,27,01,06,7.70
2014,05,27,01,07,7.70
2014,05,27,01,08,7.70
2014,05,27,01,09,7.70
2014,05,27,01,10,7.70
2014,05,27,01,11,7.70
2014,05,27,01,12,7.70
2014,05,27,01,13,7.70
2014,05,27,01,14,7.70
2014,05,27,01,15,7.70
2014,05,27,01,16,7.70
2014,05,27,01,17,7.60
2014,05,27,01,18,7.60
2014,05,27,01,19,7.60
2014,05,27,01,20,7.60
2014,05,27,01,21,7.60
2014,05,27,01,22,7.60
2014,05,27,01,23,7.60
2014,05,27,01,24,7.60
2014,05,27,01,25,7.60
2014,05,27,01,26,7.60
2014,05,27,01,27,7.60
2014,05,27,01,28,7.60
2014,05,27,01,29,7.60
2014,05,27,01,30,7.60
2014,05,27,01,31,7.60
2014,05,27,01,32,7.60
2014,05,27,01,33,7.60
2014,05,27,01,34,7.60
2014,05,27,01,35,7.60
2014,05,27,01,36,7.60
2014,05,27,01,37,7.50
2014,05,27,01,38,7.50
2014,05,27,01,39,7.50
2014,05,27,01,40,7.50
2014,05,27,01,41,7.50
2014,05,27,01,42,7.50
2014,05,27,01,43,7.40
2014,05,27,01,44,7.40
2014,05,27,01,45,7.40
2014,05,27,01,46,7.40
2014,05,27,01,47,7.40
2014,05,27,01,48,7.40
2014,05,27,01,49,7.40
2014,05,27,01,50,7.30
2014,05,27,01,51,7.30
2014,05,27,01,52,7.30
2014,05,27,01,53,7.30
2014,05,27,01,54,7.30
2014,05,27,01,55,7.30
2014,05,27,01,56,7.30
2014,05,27,01,57,7.20
2014,05,27,01,58,7.20
2014,05,27,01,59,7.20
2014,05,27,02,00,7.20
2014,05,27,02,01,7.20
2014,05,27,02,02,7.20
2014,05,27,02,03,7.10
2014,05,27,02,04,7.10
2014,05,27,02,05,7.10
2014,05,27,02,06,7.10
2014,05,27,02,07,7.10
2014,05,27,02,08,7.10
2014,05,27,02,09,7.10
2014,05,27,02,10,7.00
2014,05,27,02,11,7.00
2014,05,27,02,12,7.00
2014,05,27,02,13,7.00
2014,05,27,02,14,7.00
2014,05,27,02,15,7.00
2014,05,27,02,16,7.00
2014,05,27,02,17,7.00
2014,05,27,02,18,7.00
2014,05,27,02,19,7.00
2014,05,27,02,20,7.00
2014,05,27,02,21,7.10
2014,05,27,02,22,7.10
2014,05,27,02,23,7.10
2014,05,27,02,24,7.10
2014,05,27,02,25,7.10
2014,05,27,02,26,7.10
2014,05,27,02,27,7.10
2014,05,27,02,28,7.10
2014,05,27,02,29,7.10
2014,05,27,02,30,7.10
2014,05,27,02,31,7.10
2014,05,27,02,32,7.10
2014,05,27,02,33,7.10
2014,05,27,02,34,7.10
2014,05,27,02,35,7.10
2014,05,27,02,36,7.10
2014,05,27,02,37,7.10
2014,05,27,02,38,7.10
2014,05,27,02,39,7.10
2014,05,27,02,40,7.10
2014,05,27,02,41,7.10
2014,05,27,02,42,7.10
2014,05,27,02,43,7.10
2014,05,27,02,44,7.10
2014,05,27,02,45,7.10
2014,05,27,02,46,7.10
2014,05,27,02,47,7.10
2014,05,27,02,48,7.10
2014,05,27,02,49,7.10
2014,05,27,02,50,7.10
2014,05,27,02,51,7.10
2014,05,27,02,52,7.10
2014,05,27,02,53,7.10
2014,05,27,02,54,7.20
2014,05,27,02,55,7.20
2014,05,27,02,56,7.20
2014,05,27,02,57,7.20
2014,05,27,02,58,7.30
2014,05,27,02,59,7.30
2014,05,27,03,00,7.30
2014,05,27,03,01,7.30
2014,05,27,03,02,7.40
2014,05,27,03,03,7.40
2014,05,27,03,04,7.40
2014,05,27,03,05,7.40
2014,05,27,03,06,7.50
2014,05,27,03,07,7.50
2014,05,27,03,08,7.50
2014,05,27,03,09,7.60
2014,05,27,03,10,7.60
2014,05,27,03,11,7.60
2014,05,27,03,12,7.60
2014,05,27,03,13,7.60
2014,05,27,03,14,7.60
2014,05,27,03,15,7.60
2014,05,27,03,16,7.60
2014,05,27,03,17,7.60
2014,05,27,03,18,7.60
2014,05,27,03,19,7.60
2014,05,27,03,20,7.60
2014,05,27,03,21,7.60
2014,05,27,03,22,7.60
2014,05,27,03,23,7.60
2014,05,27,03,24,7.60
2014,05,27,03,25,7.60
2014,05,27,03,26,7.60
2014,05,27,03,27,7.60
2014,05,27,03,28,7.60
2014,05,27,03,29,7.60
2014,05,27,03,30,7.70
2014,05,27,03,31,7.70
2014,05,27,03,32,7.70
2014,05,27,03,33,7.70
2014,05,27,03,34,7.70
2014,05,27,03,35,7.70
2014,05,27,03,36,7.80
2014,05,27,03,37,7.80
2014,05,27,03,38,7.80
2014,05,27,03,39,7.80
2014,05,27,03,40,7.70
2014,05,27,03,41,7.70
2014,05,27,03,42,7.70
2014,05,27,03,43,7.70
2014,05,27,03,44,7.70
2014,05,27,03,45,7.70
2014,05,27,03,46,7.70
2014,05,27,03,47,7.70
2014,05,27,03,48,7.70
2014,05,27,03,49,7.70
2014,05,27,03,50,7.70
2014,05,27,03,51,7.70
2014,05,27,03,52,7.60
2014,05,27,03,53,7.60
2014,05,27,03,54,7.60
2014,05,27,03,55,7.60
2014,05,27,03,56,7.60
2014,05,27,03,57,7.60
2014,05,27,03,58,7.60
2014,05,27,03,59,7.60
2014,05,27,04,00,7.60
2014,05,27,04,01,7.60
2014,05,27,04,02,7.60
2014,05,27,04,03,7.60
2014,05,27,04,04,7.60
2014,05,27,04,05,7.60
2014,05,27,04,06,7.60
2014,05,27,04,07,7.60
2014,05,27,04,08,7.60
2014,05,27,04,09,7.60
2014,05,27,04,10,7.60
2014,05,27,04,11,7.60
2014,05,27,04,12,7.60
2014,05,27,04,13,7.60
2014,05,27,04,14,7.60
2014,05,27,04,15,7.60
2014,05,27,04,16,7.50
2014,05,27,04,17,7.50
2014,05,27,04,18,7.50
2014,05,27,04,19,7.50
2014,05,27,04,20,7.50
2014,05,27,04,21,7.50
2014,05,27,04,22,7.40
2014,05,27,04,23,7.40
2014,05,27,04,24,7.40
2014,05,27,04,25,7.40
2014,05,27,04,26,7.40
2014,05,27,04,27,7.40
2014,05,27,04,28,7.40
2014,05,27,04,29,7.40
2014,05,27,04,30,7.40
2014,05,27,04,31,7.30
2014,05,27,04,32,7.30
2014,05,27,04,33,7.30
2014,05,27,04,34,7.30
2014,05,27,04,35,7.30
2014,05,27,04,36,7.30
2014,05,27,04,37,7.30
2014,05,27,04,38,7.30
2014,05,27,04,39,7.20
2014,05,27,04,40,7.20
2014,05,27,04,41,7.20
2014,05,27,04,42,7.20
2014,05,27,04,43,7.20
2014,05,27,04,44,7.20
2014,05,27,04,45,7.20
2014,05,27,04,46,7.10
2014,05,27,04,47,7.10
2014,05,27,04,48,7.10
2014,05,27,04,49,7.10
2014,05,27,04,50,7.10
2014,05,27,04,51,7.10
2014,05,27,04,52,7.00
2014,05,27,04,53,7.00
2014,05,27,04,54,7.00
2014,05,27,04,55,7.00
2014,05,27,04,56,6.90
2014,05,27,04,57,6.90
2014,05,27,04,58,6.90
2014,05,27,04,59,6.90
2014,05,27,05,00,6.90
2014,05,27,05,01,6.90
2014,05,27,05,02,6.90
2014,05,27,05,03,6.90
2014,05,27,05,04,6.80
2014,05,27,05,05,6.80
2014,05,27,05,06,6.80
2014,05,27,05,07,6.80
2014,05,27,05,08,6.80
2014,05,27,05,09,6.80
2014,05,27,05,10,6.80
2014,05,27,05,11,6.80
2014,05,27,05,12,6.80
2014,05,27,05,13,6.80
2014,05,27,05,14,6.70
2014,05,27,05,15,6.70
2014,05,27,05,16,6.70
2014,05,27,05,17,6.70
2014,05,27,05,18,6.70
2014,05,27,05,19,6.70
2014,05,27,05,20,6.70
2014,05,27,05,21,6.70
2014,05,27,05,22,6.70
2014,05,27,05,23,6.70
2014,05,27,05,24,6.70
2014,05,27,05,25,6.70
2014,05,27,05,26,6.70
2014,05,27,05,27,6.70
2014,05,27,05,28,6.70
2014,05,27,05,29,6.70
2014,05,27,05,30,6.70
2014,05,27,05,31,6.70
2014,05,27,05,32,6.70
2014,05,27,05,33,6.70
2014,05,27,05,34,6.70
2014,05,27,05,35,6.70
2014,05,27,05,36,6.80
2014,05,27,05,37,6.70
2014,05,27,05,38,6.70
2014,05,27,05,39,6.70
2014,05,27,05,40,6.70
2014,05,27,05,41,6.70
2014,05,27,05,42,6.70
2014,05,27,05,43,6.70
2014,05,27,05,44,6.70
2014,05,27,05,45,6.70
2014,05,27,05,46,6.70
2014,05,27,05,47,6.70
2014,05,27,05,48,6.70
2014,05,27,05,49,6.70
2014,05,27,05,50,6.70
2014,05,27,05,51,6.70
2014,05,27,05,52,6.70
2014,05,27,05,53,6.70
2014,05,27,05,54,6.70
2014,05,27,05,55,6.70
2014,05,27,05,56,6.70
2014,05,27,05,57,6.60
2014,05,27,05,58,6.60
2014,05,27,05,59,6.60
2014,05,27,06,00,6.60
2014,05,27,06,01,6.60
2014,05,27,06,02,6.60
2014,05,27,06,03,6.60
2014,05,27,06,04,6.60
2014,05,27,06,05,6.60
2014,05,27,06,06,6.60
2014,05,27,06,07,6.60
2014,05,27,06,08,6.60
2014,05,27,06,09,6.60
2014,05,27,06,10,6.60
2014,05,27,06,11,6.50
2014,05,27,06,12,6.50
2014,05,27,06,13,6.50
2014,05,27,06,14,6.50
2014,05,27,06,15,6.50
2014,05,27,06,16,6.50
2014,05,27,06,17,6.50
2014,05,27,06,18,6.50
2014,05,27,06,19,6.50
2014,05,27,06,20,6.50
2014,05,27,06,21,6.50
2014,05,27,06,22,6.50
2014,05,27,06,23,6.50
2014,05,27,06,24,6.50
2014,05,27,06,25,6.50
2014,05,27,06,26,6.50
2014,05,27,06,27,6.50
2014,05,27,06,28,6.40
2014,05,27,06,29,6.40
2014,05,27,06,30,6.40
2014,05,27,06,31,6.40
2014,05,27,06,32,6.40
2014,05,27,06,33,6.40
2014,05,27,06,34,6.40
2014,05,27,06,35,6.40
2014,05,27,06,36,6.40
2014,05,27,06,37,6.40
2014,05,27,06,38,6.40
2014,05,27,06,39,6.40
2014,05,27,06,40,6.40
2014,05,27,06,41,6.40
2014,05,27,06,42,6.40
2014,05,27,06,43,6.40
2014,05,27,06,44,6.40
2014,05,27,06,45,6.40
2014,05,27,06,46,6.40
2014,05,27,06,47,6.40
2014,05,27,06,48,6.40
2014,05,27,06,49,6.40
2014,05,27,06,50,6.40
2014,05,27,06,51,6.40
2014,05,27,06,52,6.40
2014,05,27,06,53,6.40
2014,05,27,06,54,6.40
2014,05,27,06,55,6.40
2014,05,27,06,56,6.40
2014,05,27,06,57,6.40
2014,05,27,06,58,6.40
2014,05,27,06,59,6.40
2014,05,27,07,00,6.40
2014,05,27,07,01,6.40
2014,05,27,07,02,6.40
2014,05,27,07,03,6.40
2014,05,27,07,04,6.40
2014,05,27,07,05,6.40
2014,05,27,07,06,6.40
2014,05,27,07,07,6.40
2014,05,27,07,08,6.40
2014,05,27,07,09,6.40
2014,05,27,07,10,6.40
2014,05,27,07,11,6.40
2014,05,27,07,12,6.40
2014,05,27,07,13,6.40
2014,05,27,07,14,6.40
2014,05,27,07,15,6.40
2014,05,27,07,16,6.40
2014,05,27,07,17,6.40
2014,05,27,07,18,6.40
2014,05,27,07,19,6.40
2014,05,27,07,20,6.40
2014,05,27,07,21,6.40
2014,05,27,07,22,6.40
2014,05,27,07,23,6.40
2014,05,27,07,24,6.40
2014,05,27,07,25,6.40
2014,05,27,07,26,6.40
2014,05,27,07,27,6.40
2014,05,27,07,28,6.40
2014,05,27,07,29,6.40
2014,05,27,07,30,6.40
2014,05,27,07,31,6.40
2014,05,27,07,32,6.40
2014,05,27,07,33,6.40
2014,05,27,07,34,6.40
2014,05,27,07,35,6.40
2014,05,27,07,36,6.40
2014,05,27,07,37,6.40
2014,05,27,07,38,6.40
2014,05,27,07,39,6.40
2014,05,27,07,40,6.40
2014,05,27,07,41,6.40
2014,05,27,07,42,6.40
2014,05,27,07,43,6.40
2014,05,27,07,44,6.40
2014,05,27,07,45,6.40
2014,05,27,07,46,6.40
2014,05,27,07,47,6.40
2014,05,27,07,48,6.40
2014,05,27,07,49,6.40
2014,05,27,07,50,6.40
2014,05,27,07,51,6.40
2014,05,27,07,52,6.40
2014,05,27,07,53,6.40
2014,05,27,07,54,6.40
2014,05,27,07,55,6.40
2014,05,27,07,56,6.40
2014,05,27,07,57,6.40
2014,05,27,07,58,6.40
2014,05,27,07,59,6.40
2014,05,27,08,00,6.40
2014,05,27,08,01,6.40
2014,05,27,08,02,6.40
2014,05,27,08,03,6.30
2014,05,27,08,04,6.30
2014,05,27,08,05,6.30
2014,05,27,08,06,6.30
2014,05,27,08,07,6.30
2014,05,27,08,08,6.30
2014,05,27,08,09,6.30
2014,05,27,08,10,6.30
2014,05,27,08,11,6.30
2014,05,27,08,12,6.30
2014,05,27,08,13,6.30
2014,05,27,08,14,6.30
2014,05,27,08,15,6.30
2014,05,27,08,16,6.30
2014,05,27,08,17,6.30
2014,05,27,08,18,6.30
2014,05,27,08,19,6.30
2014,05,27,08,20,6.30
2014,05,27,08,21,6.30
2014,05,27,08,22,6.30
2014,05,27,08,23,6.30
2014,05,27,08,24,6.30
2014,05,27,08,25,6.20
2014,05,27,08,26,6.20
2014,05,27,08,27,6.20
2014,05,27,08,28,6.20
2014,05,27,08,29,6.20
2014,05,27,08,30,6.20
2014,05,27,08,31,6.20
2014,05,27,08,32,6.20
2014,05,27,08,33,6.30
2014,05,27,08,34,6.30
2014,05,27,08,35,6.30
2014,05,27,08,36,6.30
2014,05,27,08,37,6.30
2014,05,27,08,38,6.30
2014,05,27,08,39,6.30
2014,05,27,08,40,6.40
2014,05,27,08,41,6.40
2014,05,27,08,42,6.40
2014,05,27,08,43,6.50
2014,05,27,08,44,6.50
2014,05,27,08,45,6.50
2014,05,27,08,46,6.50
2014,05,27,08,47,6.50
2014,05,27,08,48,6.60
2014,05,27,08,49,6.60
2014,05,27,08,50,6.60
2014,05,27,08,51,6.60
2014,05,27,08,52,6.60
2014,05,27,08,53,6.60
2014,05,27,08,54,6.60
2014,05,27,08,55,6.60
2014,05,27,08,56,6.60
2014,05,27,08,57,6.60
2014,05,27,08,58,6.60
2014,05,27,08,59,6.60
2014,05,27,09,00,6.60
2014,05,27,09,01,6.60
2014,05,27,09,02,6.60
2014,05,27,09,03,6.60
2014,05,27,09,04,6.60
2014,05,27,09,05,6.60
2014,05,27,09,06,6.70
2014,05,27,09,07,6.70
2014,05,27,09,08,6.70
2014,05,27,09,09,6.70
2014,05,27,09,10,6.70
2014,05,27,09,11,6.70
2014,05,27,09,12,6.70
2014,05,27,09,13,6.70
2014,05,27,09,14,6.80
2014,05,27,09,15,6.80
2014,05,27,09,16,6.80
2014,05,27,09,17,6.80
2014,05,27,09,18,6.80
2014,05,27,09,19,6.90
2014,05,27,09,20,6.90
2014,05,27,09,21,6.90
2014,05,27,09,22,6.90
2014,05,27,09,23,7.00
2014,05,27,09,24,7.00
2014,05,27,09,25,7.00
2014,05,27,09,26,7.10
2014,05,27,09,27,7.10
2014,05,27,09,28,7.10
2014,05,27,09,29,7.20
2014,05,27,09,30,7.20
2014,05,27,09,31,7.20
2014,05,27,09,32,7.30
2014,05,27,09,33,7.30
2014,05,27,09,34,7.40
2014,05,27,09,35,7.50
2014,05,27,09,36,7.50
2014,05,27,09,37,7.60
2014,05,27,09,38,7.70
2014,05,27,09,39,7.70
2014,05,27,09,40,7.80
2014,05,27,09,41,7.80
2014,05,27,09,42,7.90
2014,05,27,09,43,7.90
2014,05,27,09,44,8.00
2014,05,27,09,45,8.00
2014,05,27,09,46,8.10
2014,05,27,09,47,8.20
2014,05,27,09,48,8.20
2014,05,27,09,49,8.30
2014,05,27,09,50,8.40
2014,05,27,09,51,8.40
2014,05,27,09,52,8.40
2014,05,27,09,53,8.50
2014,05,27,09,54,8.60
2014,05,27,09,55,8.60
2014,05,27,09,56,8.60
2014,05,27,09,57,8.70
2014,05,27,09,58,8.70
2014,05,27,09,59,8.80
2014,05,27,10,00,8.80
2014,05,27,10,01,8.80
2014,05,27,10,02,8.90
2014,05,27,10,03,8.90
2014,05,27,10,04,9.00
2014,05,27,10,05,9.00
2014,05,27,10,06,9.10
2014,05,27,10,07,9.20
2014,05,27,10,08,9.20
2014,05,27,10,09,9.30
2014,05,27,10,10,9.40
2014,05,27,10,11,9.40
2014,05,27,10,12,9.50
2014,05,27,10,13,9.50
2014,05,27,10,14,9.60
2014,05,27,10,15,9.70
2014,05,27,10,16,9.80
2014,05,27,10,17,9.90
2014,05,27,10,18,9.90
2014,05,27,10,19,9.90
2014,05,27,10,20,9.90
2014,05,27,10,21,9.90
2014,05,27,10,22,9.90
2014,05,27,10,23,9.90
2014,05,27,10,24,10.00
2014,05,27,10,25,10.00
2014,05,27,10,26,10.00
2014,05,27,10,27,10.00
2014,05,27,10,28,10.00
2014,05,27,10,29,10.10
2014,05,27,10,30,10.10
2014,05,27,10,31,10.10
2014,05,27,10,32,10.10
2014,05,27,10,33,10.10
2014,05,27,10,34,10.10
2014,05,27,10,35,10.10
2014,05,27,10,36,10.10
2014,05,27,10,37,10.10
2014,05,27,10,38,10.10
2014,05,27,10,39,10.20
2014,05,27,10,40,10.20
2014,05,27,10,41,10.20
2014,05,27,10,42,10.30
2014,05,27,10,43,10.30
2014,05,27,10,44,10.30
2014,05,27,10,45,10.30
2014,05,27,10,46,10.40
2014,05,27,10,47,10.40
2014,05,27,10,48,10.40
2014,05,27,10,49,10.50
2014,05,27,10,50,10.50
2014,05,27,10,51,10.50
2014,05,27,10,52,10.60
2014,05,27,10,53,10.60
2014,05,27,10,54,10.60
2014,05,27,10,55,10.70
2014,05,27,10,56,10.70
2014,05,27,10,57,10.80
2014,05,27,10,58,10.80
2014,05,27,10,59,10.80
2014,05,27,11,00,10.80
2014,05,27,11,01,10.90
2014,05,27,11,02,10.90
2014,05,27,11,03,10.90
2014,05,27,11,04,10.90
2014,05,27,11,05,11.00
2014,05,27,11,06,11.10
2014,05,27,11,07,11.10
2014,05,27,11,08,11.20
2014,05,27,11,09,11.20
2014,05,27,11,10,11.20
2014,05,27,11,11,11.10
2014,05,27,11,12,11.20
2014,05,27,11,13,11.20
2014,05,27,11,14,11.20
2014,05,27,11,15,11.20
2014,05,27,11,16,11.30
2014,05,27,11,17,11.30
2014,05,27,11,18,11.30
2014,05,27,11,19,11.30
2014,05,27,11,20,11.40
2014,05,27,11,21,11.40
2014,05,27,11,22,11.40
2014,05,27,11,23,11.40
2014,05,27,11,24,11.40
2014,05,27,11,25,11.40
2014,05,27,11,26,11.50
2014,05,27,11,27,11.50
2014,05,27,11,28,11.50
2014,05,27,11,29,11.60
2014,05,27,11,30,11.60
2014,05,27,11,31,11.60
2014,05,27,11,32,11.60
2014,05,27,11,33,11.60
2014,05,27,11,34,11.70
2014,05,27,11,35,11.70
2014,05,27,11,36,11.70
2014,05,27,11,37,11.70
2014,05,27,11,38,11.70
2014,05,27,11,39,11.70
2014,05,27,11,40,11.70
2014,05,27,11,41,11.70
2014,05,27,11,42,11.70
2014,05,27,11,43,11.80
2014,05,27,11,44,11.70
2014,05,27,11,45,11.80
2014,05,27,11,46,11.80
2014,05,27,11,47,11.80
2014,05,27,11,48,11.80
2014,05,27,11,49,11.80
2014,05,27,11,50,11.90
2014,05,27,11,51,11.90
2014,05,27,11,52,11.90
2014,05,27,11,53,12.00
2014,05,27,11,54,12.00
2014,05,27,11,55,12.00
2014,05,27,11,56,12.10
2014,05,27,11,57,12.10
2014,05,27,11,58,12.10
2014,05,27,11,59,12.20
2014,05,27,12,00,12.20
2014,05,27,12,01,12.30
2014,05,27,12,02,12.30
2014,05,27,12,03,12.30
2014,05,27,12,04,12.30
2014,05,27,12,05,12.30
2014,05,27,12,06,12.30
2014,05,27,12,07,12.40
2014,05,27,12,08,12.30
2014,05,27,12,09,12.30
2014,05,27,12,10,12.40
2014,05,27,12,11,12.40
2014,05,27,12,12,12.50
2014,05,27,12,13,12.60
2014,05,27,12,14,12.60
2014,05,27,12,15,12.60
2014,05,27,12,16,12.70
2014,05,27,12,17,12.80
2014,05,27,12,18,12.80
2014,05,27,12,19,12.90
2014,05,27,12,20,13.00
2014,05,27,12,21,13.00
2014,05,27,12,22,13.10
2014,05,27,12,23,13.10
2014,05,27,12,24,13.20
2014,05,27,12,25,13.20
2014,05,27,12,26,13.30
2014,05,27,12,27,13.30
2014,05,27,12,28,13.30
2014,05,27,12,29,13.30
2014,05,27,12,30,13.40
2014,05,27,12,31,13.40
2014,05,27,12,32,13.50
2014,05,27,12,33,13.60
2014,05,27,12,34,13.60
2014,05,27,12,35,13.60
2014,05,27,12,36,13.70
2014,05,27,12,37,13.80
2014,05,27,12,38,13.80
2014,05,27,12,39,13.90
2014,05,27,12,40,14.00
2014,05,27,12,41,14.10
2014,05,27,12,42,14.30
2014,05,27,12,43,14.40
2014,05,27,12,44,14.60
2014,05,27,12,45,14.70
2014,05,27,12,46,14.80
2014,05,27,12,47,15.00
2014,05,27,12,48,15.10
2014,05,27,12,49,15.20
2014,05,27,12,50,15.30
2014,05,27,12,51,15.30
2014,05,27,12,52,15.40
2014,05,27,12,53,15.40
2014,05,27,12,54,15.50
2014,05,27,12,55,15.50
2014,05,27,12,56,15.50
2014,05,27,12,57,15.50
2014,05,27,12,58,15.60
2014,05,27,12,59,15.60
2014,05,27,13,00,15.60
2014,05,27,13,01,15.60
2014,05,27,13,02,15.60
2014,05,27,13,03,15.60
2014,05,27,13,04,15.70
2014,05,27,13,05,15.80
2014,05,27,13,06,15.90
2014,05,27,13,07,16.00
2014,05,27,13,08,16.10
2014,05,27,13,09,16.20
2014,05,27,13,10,16.20
2014,05,27,13,11,16.30
2014,05,27,13,12,16.40
2014,05,27,13,13,16.60
2014,05,27,13,14,16.70
2014,05,27,13,15,16.70
2014,05,27,13,16,16.80
2014,05,27,13,17,16.80
2014,05,27,13,18,16.90
2014,05,27,13,19,16.90
2014,05,27,13,20,16.80
2014,05,27,13,21,16.80
2014,05,27,13,22,16.90
2014,05,27,13,23,16.90
2014,05,27,13,24,17.00
2014,05,27,13,25,17.00
2014,05,27,13,26,16.90
2014,05,27,13,27,16.90
2014,05,27,13,28,16.80
2014,05,27,13,29,16.80
2014,05,27,13,30,16.80
2014,05,27,13,31,16.90
2014,05,27,13,32,16.90
2014,05,27,13,33,16.90
2014,05,27,13,34,17.00
2014,05,27,13,35,17.00
2014,05,27,13,36,17.10
2014,05,27,13,37,17.10
2014,05,27,13,38,17.10
2014,05,27,13,39,17.20
2014,05,27,13,40,17.30
2014,05,27,13,41,17.40
2014,05,27,13,42,17.40
2014,05,27,13,43,17.50
2014,05,27,13,44,17.50
2014,05,27,13,45,17.50
2014,05,27,13,46,17.40
2014,05,27,13,47,17.30
2014,05,27,13,48,17.20
2014,05,27,13,49,17.10
2014,05,27,13,50,17.10
2014,05,27,13,51,17.00
2014,05,27,13,52,17.10
2014,05,27,13,53,17.10
2014,05,27,13,54,17.10
2014,05,27,13,55,17.10
2014,05,27,13,56,17.00
2014,05,27,13,57,17.00
2014,05,27,13,58,17.10
2014,05,27,13,59,17.10
2014,05,27,14,00,17.20
2014,05,27,14,01,17.20
2014,05,27,14,02,17.30
2014,05,27,14,03,17.30
2014,05,27,14,04,17.40
2014,05,27,14,05,17.40
2014,05,27,14,06,17.40
2014,05,27,14,07,17.40
2014,05,27,14,08,17.40
2014,05,27,14,09,17.50
2014,05,27,14,10,17.50
2014,05,27,14,11,17.60
2014,05,27,14,12,17.60
2014,05,27,14,13,17.70
2014,05,27,14,14,17.80
2014,05,27,14,15,17.90
2014,05,27,14,16,18.00
2014,05,27,14,17,18.10
2014,05,27,14,18,18.10
2014,05,27,14,19,18.20
2014,05,27,14,20,18.20
2014,05,27,14,21,18.20
2014,05,27,14,22,18.20
2014,05,27,14,23,18.20
2014,05,27,14,24,18.30
2014,05,27,14,25,18.40
2014,05,27,14,26,18.50
2014,05,27,14,27,18.60
2014,05,27,14,28,18.70
2014,05,27,14,29,18.80
2014,05,27,14,30,18.80
2014,05,27,14,31,18.90
2014,05,27,14,32,18.90
2014,05,27,14,33,18.90
2014,05,27,14,34,18.90
2014,05,27,14,35,18.90
2014,05,27,14,36,18.90
2014,05,27,14,37,18.80
2014,05,27,14,38,18.90
2014,05,27,14,39,18.90
2014,05,27,14,40,18.80
2014,05,27,14,41,18.90
2014,05,27,14,42,18.90
2014,05,27,14,43,18.90
2014,05,27,14,44,18.90
2014,05,27,14,45,18.90
2014,05,27,14,46,18.90
2014,05,27,14,47,18.90
2014,05,27,14,48,18.80
2014,05,27,14,49,18.70
2014,05,27,14,50,18.60
2014,05,27,14,51,18.50
2014,05,27,14,52,18.40
2014,05,27,14,53,18.30
2014,05,27,14,54,18.30
2014,05,27,14,55,18.20
2014,05,27,14,56,18.20
2014,05,27,14,57,18.10
2014,05,27,14,58,18.10
2014,05,27,14,59,18.10
2014,05,27,15,00,18.10
2014,05,27,15,01,18.00
2014,05,27,15,02,18.00
2014,05,27,15,03,17.90
2014,05,27,15,04,17.90
2014,05,27,15,05,17.90
2014,05,27,15,06,17.80
2014,05,27,15,07,17.80
2014,05,27,15,08,17.80
2014,05,27,15,09,17.80
2014,05,27,15,10,17.70
2014,05,27,15,11,17.60
2014,05,27,15,12,17.50
2014,05,27,15,13,17.50
2014,05,27,15,14,17.50
2014,05,27,15,15,17.60
2014,05,27,15,16,17.60
2014,05,27,15,17,17.70
2014,05,27,15,18,17.80
2014,05,27,15,19,17.80
2014,05,27,15,20,17.80
2014,05,27,15,21,17.90
2014,05,27,15,22,18.00
2014,05,27,15,23,18.10
2014,05,27,15,24,18.20
2014,05,27,15,25,18.30
2014,05,27,15,26,18.50
2014,05,27,15,27,18.70
2014,05,27,15,28,18.70
2014,05,27,15,29,18.80
2014,05,27,15,30,18.80
2014,05,27,15,31,18.70
2014,05,27,15,32,18.70
2014,05,27,15,33,18.70
2014,05,27,15,34,18.60
2014,05,27,15,35,18.60
2014,05,27,15,36,18.50
2014,05,27,15,37,18.40
2014,05,27,15,38,18.30
2014,05,27,15,39,18.30
2014,05,27,15,40,18.30
2014,05,27,15,41,18.30
2014,05,27,15,42,18.20
2014,05,27,15,43,18.20
2014,05,27,15,44,18.20
2014,05,27,15,45,18.10
2014,05,27,15,46,18.00
2014,05,27,15,47,17.90
2014,05,27,15,48,17.80
2014,05,27,15,49,17.60
2014,05,27,15,50,17.50
2014,05,27,15,51,17.30
2014,05,27,15,52,17.20
2014,05,27,15,53,17.00
2014,05,27,15,54,16.90
2014,05,27,15,55,16.90
2014,05,27,15,56,16.80
2014,05,27,15,57,16.70
2014,05,27,15,58,16.60
2014,05,27,15,59,16.40
2014,05,27,16,00,16.30
2014,05,27,16,01,16.20
2014,05,27,16,02,16.00
2014,05,27,16,03,15.90
2014,05,27,16,04,15.80
2014,05,27,16,05,15.80
2014,05,27,16,06,15.70
2014,05,27,16,07,15.60
2014,05,27,16,08,15.50
2014,05,27,16,09,15.40
2014,05,27,16,10,15.40
2014,05,27,16,11,15.40
2014,05,27,16,12,15.40
2014,05,27,16,13,15.40
2014,05,27,16,14,15.40
2014,05,27,16,15,15.50
2014,05,27,16,16,15.50
2014,05,27,16,17,15.50
2014,05,27,16,18,15.50
2014,05,27,16,19,15.50
2014,05,27,16,20,15.50
2014,05,27,16,21,15.50
2014,05,27,16,22,15.60
2014,05,27,16,23,15.60
2014,05,27,16,24,15.70
2014,05,27,16,25,15.70
2014,05,27,16,26,15.70
2014,05,27,16,27,15.60
2014,05,27,16,28,15.60
2014,05,27,16,29,15.60
2014,05,27,16,30,15.50
2014,05,27,16,31,15.50
2014,05,27,16,32,15.40
2014,05,27,16,33,15.40
2014,05,27,16,34,15.30
2014,05,27,16,35,15.30
2014,05,27,16,36,15.30
2014,05,27,16,37,15.20
2014,05,27,16,38,15.10
2014,05,27,16,39,15.10
2014,05,27,16,40,15.00
2014,05,27,16,41,15.00
2014,05,27,16,42,14.90
2014,05,27,16,43,14.90
2014,05,27,16,44,15.00
2014,05,27,16,45,15.00
2014,05,27,16,46,15.00
2014,05,27,16,47,15.00
2014,05,27,16,48,14.90
2014,05,27,16,49,14.90
2014,05,27,16,50,14.90
2014,05,27,16,51,14.90
2014,05,27,16,52,14.90
2014,05,27,16,53,14.80
2014,05,27,16,54,14.80
2014,05,27,16,55,14.80
2014,05,27,16,56,14.70
2014,05,27,16,57,14.70
2014,05,27,16,58,14.70
2014,05,27,16,59,14.60
2014,05,27,17,00,14.60
2014,05,27,17,01,14.50
2014,05,27,17,02,14.40
2014,05,27,17,03,14.40
2014,05,27,17,04,14.30
2014,05,27,17,05,14.30
2014,05,27,17,06,14.30
2014,05,27,17,07,14.20
2014,05,27,17,08,14.20
2014,05,27,17,09,14.20
2014,05,27,17,10,14.20
2014,05,27,17,11,14.10
2014,05,27,17,12,14.10
2014,05,27,17,13,14.10
2014,05,27,17,14,14.10
2014,05,27,17,15,14.00
2014,05,27,17,16,14.00
2014,05,27,17,17,14.00
2014,05,27,17,18,13.90
2014,05,27,17,19,13.90
2014,05,27,17,20,13.90
2014,05,27,17,21,13.90
2014,05,27,17,22,13.90
2014,05,27,17,23,13.90
2014,05,27,17,24,13.90
2014,05,27,17,25,13.90
2014,05,27,17,26,13.90
2014,05,27,17,27,13.90
2014,05,27,17,28,13.80
2014,05,27,17,29,13.80
2014,05,27,17,30,13.80
2014,05,27,17,31,13.80
2014,05,27,17,32,13.80
2014,05,27,17,33,13.80
2014,05,27,17,34,13.80
2014,05,27,17,35,13.80
2014,05,27,17,36,13.70
2014,05,27,17,37,13.70
2014,05,27,17,38,13.70
2014,05,27,17,39,13.70
2014,05,27,17,40,13.70
2014,05,27,17,41,13.70
2014,05,27,17,42,13.70
2014,05,27,17,43,13.60
2014,05,27,17,44,13.60
2014,05,27,17,45,13.60
2014,05,27,17,46,13.60